Location: Borojevi?i
(45.0486°N, 16.2297°E)
Time: 04:49:53
(UTC+00:00)

Resurs 01 Rocket - Pass Details

Date: 08 August 2020
Orbit: 635 x 644 km, 98.0° (Epoch: 19 September)

Event Time Altitude Azimuth Distance (km) Brightness Sun altitude
Exits shadow 19:27:31 11° 167° (SSE) 1,980 3.7 -12.3°
Maximum altitude 19:31:49 85° 254° (WSW) 647 1.6 -12.9°
Drops below altitude 10° 19:36:17 10° 346° (NNW) 2,041 5.1 -13.5°
Sets 19:38:30 0° 347° (NNW) 2,956 6.0 -13.8°
